[[{"header":{"parameterUnit":"m.s-1","parameterCategory":2,"la1":30.2991,"la2":30.254,"lo1":-89.0895,"lo2":-89.0444,"dy":0.0017,"dx":0.0017,"nx":28,"ny":28,"refTime":"2025-07-22T03:00:00:Z","depth":"0","parameterNumber":2,"parameterNumberName":"U-component_of_CURRENTS"},"data":[0,0,0,0,0,0,0,0,0,0,0,0,0,0,0,0,0,0,0,0,0,0,0,0,0,0,0,0,0,0,0,0,0,0,0,0,0,0,0,0,0,0,0,0,0,0,0,0,0,0,0,0,0,0,0,0,0,0,0.2219,0.222,0,0.2257,0.2256,0.2256,0.2246,0.2246,0.2246,0.2245,0.2316,0.2318,0.232,0,0,0,0,0,0,0,0,0,0,0,0,0,0.2162,0.2162,0.2219,0.222,0.2221,0.2257,0.2256,0.2256,0.2246,0.2246,0.2246,0.2245,0.2315,0.2318,0.232,0,0,0,0,0,0,0,0,0,0,0,0,0,0.2186,0.2163,0.2219,0.2225,0.2226,0.2257,0.2256,0.2256,0.2246,0.2246,0.2246,0.2245,0.2314,0.2317,0.232,0.2346,0,0,0.233,0.2331,0,0,0,0,0,0,0,0,0.2185,0.2187,0.2223,0.2225,0.2226,0.2252,0.2262,0.229,0.2246,0.2232,0.2245,0.2245,0.2302,0.2306,0.2304,0.2349,0.2352,0.233,0.2332,0.2333,0.2334,0,0,0,0,0,0,0,0.2183,0.2186,0.2228,0.2224,0.2226,0.2234,0.2236,0.2267,0.2264,0.2233,0.2234,0.2248,0.2302,0.2301,0.2306,0.2353,0.233,0.2333,0.2335,0.2336,0.2485,0.2487,0,0,0,0,0,0,0.219,0.2184,0.2227,0.223,0.2211,0.2235,0.2238,0.2239,0.2263,0.2268,0.2248,0.2248,0.2296,0.2303,0.2309,0.2413,0.2333,0.2336,0.2338,0.2483,0.2486,0.2488,0,0,0,0,0,0,0.2188,0.2193,0.2225,0.2213,0.2219,0.2237,0.2238,0.224,0.2242,0.2275,0.2279,0.225,0.2296,0.2304,0.2349,0.2413,0.2338,0.234,0.248,0.2484,0.2487,0.2575,0,0,0,0,0,0,0.2186,0.2191,0.2198,0.2213,0.222,0.2265,0.2239,0.2241,0.2254,0.2253,0.2278,0.2284,0.2297,0.2344,0.2352,0.2416,0.2343,0.2478,0.2482,0.2486,0.2569,0.2581,0.259,0,0,0,0,0,0.2184,0.2201,0.2197,0.2203,0.2226,0.2267,0.2272,0.2279,0.2254,0.2274,0.2283,0.2283,0.2376,0.2348,0.2357,0.2423,0.2476,0.2481,0.2485,0.2565,0.2578,0.259,0,0,0,0,0,0,0.2185,0.2203,0.2199,0.2221,0.2251,0.2268,0.2289,0.2281,0.2299,0.2297,0.2303,0.2311,0.2384,0.2381,0.2351,0.2477,0.243,0.2436,0.2487,0.25,0.251,0.2508,0.2345,0,0,0,0,0,0.2187,0.2202,0.2225,0.2248,0.226,0.2269,0.2284,0.2291,0.231,0.2315,0.2331,0.2358,0.241,0.2433,0.2474,0.253,0.2531,0.258,0.2591,0.26,0.2604,0.2696,0.2715,0.2503,0.2503,0.2503,0,0,0.2193,0.221,0.2216,0.225,0.2265,0.2309,0.2276,0.2311,0.2351,0.2324,0.2376,0.2399,0.2433,0.2511,0.2542,0.2515,0.2649,0.2606,0.2613,0.2613,0.2703,0.2724,0.2742,0.2507,0.2506,0.2505,0,0,0.223,0.2227,0.2256,0.2286,0.2327,0.2342,0.2353,0.2376,0.2389,0.2445,0.2444,0.2495,0.2555,0.2599,0.2628,0.2717,0.2707,0.2732,0.2783,0.2873,0.2891,0.2908,0.2886,0.29,0.2732,0.2733,0.2733,0,0.2244,0.2275,0.2276,0.2323,0.2352,0.2359,0.2404,0.2434,0.2471,0.2486,0.248,0.2578,0.2608,0.2705,0.274,0.2746,0.2753,0.2733,0.2888,0.2905,0.292,0.2895,0.2909,0.2737,0.2737,0.2736,0.2736,0,0.2301,0.2335,0.236,0.2416,0.2448,0.2493,0.2532,0.2563,0.2574,0.2598,0.2681,0.2721,0.2771,0.2807,0.2805,0.2927,0.2878,0.2897,0.2857,0.2947,0.2913,0.2927,0.2744,0.2742,0.2741,0.274,0,0,0.2308,0.2385,0.2392,0.243,0.2495,0.2529,0.2599,0.2657,0.2692,0.2749,0.281,0.2904,0.2897,0.2929,0.294,0.3018,0.312,0.3002,0.3005,0.2979,0.3245,0.2965,0.2952,0.3178,0.3182,0.3185,0.316,0,0.2355,0.2451,0.2469,0.2559,0.2611,0.2632,0.2691,0.2744,0.2785,0.2851,0.2906,0.2978,0.2955,0.2987,0.3064,0.3128,0.3168,0.312,0.3162,0.3161,0.2904,0.2964,0.2753,0.2692,0.3172,0.3174,0.3176,0,0.2394,0.2461,0.2548,0.2625,0.2642,0.2688,0.2756,0.2812,0.2898,0.2928,0.2997,0.3036,0.3144,0.3126,0.3251,0.3223,0.323,0.3263,0.3264,0.2984,0.2908,0.2691,0.2698,0.2566,0.3196,0.3194,0.3193,0,0.2401,0.2503,0.257,0.2602,0.2697,0.2718,0.2757,0.2826,0.2868,0.2978,0.3022,0.3135,0.319,0.328,0.3273,0.3306,0.3372,0.3433,0.3167,0.3143,0.2957,0.2909,0.2841,0.3514,0.3514,0.3514,0.3514,0,0.2439,0.2494,0.2573,0.262,0.2684,0.2726,0.2785,0.2835,0.2909,0.2967,0.3049,0.3101,0.3244,0.3271,0.33,0.3209,0.3379,0.3165,0.3136,0.2969,0.2925,0.2792,0.2766,0.3513,0.3513,0.3513,0.3513,0,0.2446,0.2496,0.2586,0.2677,0.2695,0.2738,0.2794,0.2838,0.2894,0.2979,0.302,0.3109,0.3114,0.3137,0.3239,0.3183,0.3027,0.308,0.279,0.2726,0.2369,0.2354,0.2192,0.2146,0.2852,0.2845,0.284,0,0.2467,0.2517,0.2622,0.2663,0.27,0.2754,0.2786,0.2835,0.2878,0.2959,0.3003,0.301,0.2962,0.2897,0.2805,0.2715,0.271,0.2474,0.2513,0.2289,0.226,0.224,0.2218,0.2301,0.2291,0.2283,0.2277,0,0.253,0.2556,0.2633,0.2698,0.2737,0.2768,0.281,0.2823,0.2876,0.2894,0.2863,0.2818,0.268,0.2455,0.2274,0.2233,0.2283,0.2302,0.2221,0.1915,0.1752,0.171,0.231,0.2206,0.2213,0.2218,0.2222,0.2225,0.2579,0.2617,0.2688,0.2725,0.2762,0.2733,0.2674,0.2695,0.2662,0.2563,0.2657,0.2424,0.22,0.1893,0.1822,0.1516,0.1713,0.1477,0.1504,0.1524,0.1391,0.1733,0.1498,0.15,0.1503,0.1505,0.1507,0,0.2614,0.2636,0.27,0.2702,0.2663,0.2683,0.2645,0.2511,0.2359,0.2275,0.2146,0.1752,0.1452,0.1262,0.0929,0.0775,0.0845,0.0727,0.074,0.0793,0.1215,0.1097,0.0581,0.0581,0.0581,0.0581,0.0581,0.0581,0.2643,0.266,0.2647,0.2563,0.2536,0.2355,0.2258,0.2086,0.1948,0.1572,0.1269,0.1133,0.0873,0.0495,0.0217,0.021,0.0237,0.0093,0.0239,0.058,0.0656,0.0729,0.0614,0.0004,0.0004,-0.0223,-0.0226,-0.0228]},{"header":{"parameterUnit":"m.s-1","parameterCategory":2,"la1":30.2991,"la2":30.254,"lo1":-89.0895,"lo2":-89.0444,"dy":0.0017,"dx":0.0017,"nx":28,"ny":28,"refTime":"2025-07-22T03:00:00:Z","depth":"0","parameterNumber":3,"parameterNumberName":"V-component_of_CURRENTS"},"data":[0,0,0,0,0,0,0,0,0,0,0,0,0,0,0,0,0,0,0,0,0,0,0,0,0,0,0,0,0,0,0,0,0,0,0,0,0,0,0,0,0,0,0,0,0,0,0,0,0,0,0,0,0,0,0,0,0,0,0.0168,0.0168,0,0.019,0.0191,0.0191,0.0183,0.0183,0.0183,0.0182,0.0164,0.0164,0.0164,0,0,0,0,0,0,0,0,0,0,0,0,0,0.0132,0.0133,0.0168,0.0168,0.0169,0.019,0.0191,0.0191,0.0183,0.0183,0.0182,0.0182,0.0164,0.0164,0.0164,0,0,0,0,0,0,0,0,0,0,0,0,0,0.015,0.0133,0.0168,0.0168,0.0169,0.019,0.0191,0.0191,0.0184,0.0183,0.0182,0.0182,0.0164,0.0164,0.0164,0.0174,0,0,0.0163,0.0163,0,0,0,0,0,0,0,0,0.0149,0.0151,0.0168,0.0168,0.0169,0.0184,0.0171,0.0184,0.0184,0.0177,0.0182,0.0182,0.0168,0.0168,0.0172,0.0174,0.0173,0.0163,0.0163,0.0163,0.0163,0,0,0,0,0,0,0,0.0147,0.015,0.0176,0.0168,0.0169,0.0172,0.0174,0.0174,0.0174,0.0177,0.0177,0.0181,0.0168,0.0173,0.0172,0.0173,0.0163,0.0163,0.0163,0.0163,0.0196,0.0196,0,0,0,0,0,0,0.0147,0.0149,0.0175,0.0177,0.0158,0.0173,0.0175,0.0179,0.0175,0.0174,0.0182,0.0181,0.0173,0.0172,0.0171,0.0187,0.0163,0.0163,0.0163,0.0195,0.0196,0.0197,0,0,0,0,0,0,0.0146,0.0149,0.0174,0.0164,0.0167,0.0175,0.0179,0.018,0.0183,0.0179,0.0177,0.0184,0.0173,0.0171,0.0173,0.0185,0.0163,0.0163,0.0193,0.0195,0.0196,0.0215,0,0,0,0,0,0,0.0145,0.0148,0.0152,0.0164,0.0168,0.0189,0.018,0.0181,0.0187,0.0186,0.0181,0.0178,0.0172,0.0173,0.0173,0.0185,0.0162,0.0192,0.0194,0.0196,0.0214,0.0217,0.0221,0,0,0,0,0,0.0143,0.0155,0.0152,0.0155,0.0172,0.019,0.0192,0.0194,0.0188,0.0194,0.0189,0.0179,0.0185,0.0174,0.0173,0.0185,0.0191,0.0194,0.0196,0.0212,0.0217,0.022,0,0,0,0,0,0,0.0141,0.0156,0.0152,0.0167,0.0176,0.0189,0.0198,0.0196,0.0199,0.0197,0.0186,0.0184,0.0191,0.0189,0.0177,0.0202,0.0189,0.0191,0.0201,0.0206,0.0209,0.0252,0.0162,0,0,0,0,0,0.0142,0.0154,0.0164,0.0176,0.0182,0.0189,0.0196,0.0198,0.0203,0.0203,0.0198,0.0199,0.0202,0.0203,0.0204,0.0216,0.025,0.0226,0.023,0.0233,0.0268,0.0374,0.0391,0.0204,0.0204,0.0204,0,0,0.0145,0.0154,0.016,0.0176,0.0184,0.0196,0.0191,0.0207,0.0214,0.0201,0.0208,0.0207,0.0207,0.0219,0.0223,0.0218,0.0286,0.0235,0.0238,0.0273,0.0378,0.0397,0.0413,0.0205,0.0205,0.0205,0,0,0.0162,0.0164,0.0181,0.0187,0.0202,0.0206,0.021,0.0222,0.0226,0.0233,0.0228,0.0251,0.0237,0.026,0.0263,0.0293,0.03,0.0275,0.033,0.043,0.0447,0.0463,0.0457,0.0472,0.028,0.028,0.028,0,0.0164,0.018,0.0189,0.0203,0.0208,0.021,0.0223,0.023,0.024,0.0265,0.0237,0.0288,0.0269,0.0326,0.0321,0.0305,0.0329,0.0307,0.0438,0.0455,0.0471,0.0461,0.0478,0.0281,0.0281,0.0281,0.0281,0,0.0191,0.0199,0.021,0.0224,0.0233,0.0244,0.0253,0.027,0.0269,0.029,0.0345,0.0346,0.0391,0.0373,0.0344,0.0444,0.0408,0.0427,0.043,0.0491,0.0475,0.0492,0.0283,0.0282,0.0282,0.0282,0,0,0.0208,0.0224,0.0227,0.0238,0.0241,0.0261,0.0277,0.0315,0.037,0.0376,0.0466,0.0453,0.0487,0.0497,0.0487,0.0556,0.0634,0.0532,0.0537,0.0529,0.0789,0.0685,0.0692,0.0685,0.069,0.0694,0.0705,0,0.0223,0.0249,0.0253,0.0277,0.029,0.0298,0.0328,0.0366,0.0402,0.0491,0.0529,0.0597,0.0523,0.0564,0.0621,0.0656,0.0693,0.0624,0.073,0.0731,0.0638,0.0716,0.0711,0.0717,0.0722,0.0725,0.0727,0,0.0244,0.026,0.028,0.032,0.0332,0.0349,0.0426,0.0457,0.0567,0.0609,0.0696,0.0735,0.082,0.077,0.0863,0.0823,0.0805,0.0816,0.0817,0.0744,0.0664,0.0673,0.0748,0.0778,0.0753,0.0751,0.0749,0,0.0256,0.0283,0.03,0.0304,0.0348,0.0378,0.0412,0.0501,0.0576,0.071,0.0803,0.0896,0.0974,0.101,0.0968,0.0946,0.1069,0.1047,0.0923,0.0911,0.0942,0.0925,0.1077,0.1132,0.1132,0.1132,0.1132,0,0.0265,0.0286,0.0311,0.0323,0.0395,0.0407,0.0518,0.0572,0.0701,0.0833,0.0878,0.1004,0.1053,0.1105,0.1051,0.1023,0.1127,0.0958,0.0944,0.0934,0.0917,0.0971,0.0966,0.1132,0.1132,0.1132,0.1132,0,0.0283,0.0282,0.0326,0.0374,0.0401,0.046,0.0583,0.0687,0.0771,0.0954,0.1008,0.1128,0.118,0.1158,0.1213,0.1125,0.1107,0.1059,0.0976,0.0952,0.0855,0.0849,0.0968,0.0968,0.096,0.0958,0.0957,0,0.0298,0.0314,0.0381,0.0437,0.0464,0.0553,0.0644,0.0727,0.084,0.1025,0.1131,0.1221,0.1287,0.1269,0.1162,0.1053,0.1054,0.0956,0.0926,0.0877,0.0863,0.0866,0.0859,0.0939,0.0937,0.0936,0.0935,0,0.0352,0.0371,0.0424,0.0524,0.061,0.0712,0.0827,0.0917,0.1037,0.116,0.1309,0.1365,0.1331,0.1253,0.1076,0.0994,0.0977,0.092,0.0968,0.0947,0.0877,0.0858,0.0818,0.0923,0.0924,0.0925,0.0926,0.0926,0.0422,0.0477,0.0546,0.0641,0.0738,0.0845,0.0919,0.1041,0.1179,0.1317,0.1388,0.1414,0.133,0.11,0.1013,0.0862,0.087,0.0827,0.0839,0.0857,0.084,0.07,0.0729,0.0729,0.0729,0.0729,0.0729,0,0.051,0.0566,0.0666,0.0767,0.086,0.089,0.1032,0.1085,0.1206,0.1306,0.1381,0.1309,0.1212,0.1081,0.0904,0.0828,0.0824,0.0804,0.0876,0.0884,0.0865,0.0847,0.0789,0.0789,0.0789,0.0789,0.0789,0.0789,0.0567,0.0662,0.0694,0.0835,0.0906,0.0995,0.1051,0.1122,0.1173,0.1213,0.1175,0.1159,0.1097,0.1036,0.0938,0.0891,0.0919,0.0861,0.0879,0.0923,0.0928,0.0934,0.0922,0.088,0.088,0.0923,0.0924,0.0924]}],[{"header":{"parameterUnit":"m.s-1","parameterCategory":2,"la1":30.2991,"la2":30.254,"lo1":-89.0895,"lo2":-89.0444,"dy":0.0017,"dx":0.0017,"nx":28,"ny":28,"refTime":"2025-07-22T03:00:00:Z","depth":"2","parameterNumber":2,"parameterNumberName":"U-component_of_CURRENTS"},"data":[0,0,0,0,0,0,0,0,0,0,0,0,0,0,0,0,0,0,0,0,0,0,0,0,0,0,0,0,0,0,0,0,0,0,0,0,0,0,0,0,0,0,0,0,0,0,0,0,0,0,0,0,0,0,0,0,0,0,0.1767,0.1767,0,0.1766,0.1766,0.1766,0.1773,0.1773,0.1774,0.1774,0.179,0.179,0.1791,0,0,0,0,0,0,0,0,0,0,0,0,0,0.1813,0.1812,0.1767,0.1767,0.1767,0.1766,0.1766,0.1766,0.1773,0.1773,0.1774,0.1774,0.179,0.179,0.1791,0,0,0,0,0,0,0,0,0,0,0,0,0,0.18,0.1811,0.1767,0.1771,0.1771,0.1766,0.1766,0.1766,0.1773,0.1773,0.1774,0.1774,0.179,0.179,0.1791,0.1785,0,0,0.1792,0.1792,0,0,0,0,0,0,0,0,0.18,0.1798,0.177,0.1771,0.1771,0.1771,0.1788,0.1773,0.1773,0.1772,0.1774,0.1774,0.1785,0.1786,0.1784,0.1785,0.1786,0.1792,0.1792,0.1792,0.1792,0,0,0,0,0,0,0,0.1801,0.1798,0.1766,0.177,0.1771,0.1786,0.1784,0.1785,0.1776,0.1772,0.1772,0.1773,0.1786,0.1784,0.1784,0.1786,0.1792,0.1792,0.1792,0.1792,0.1842,0.1843,0,0,0,0,0,0,0.18,0.1799,0.1766,0.1766,0.1788,0.1785,0.1783,0.177,0.1776,0.1777,0.1773,0.1774,0.1783,0.1784,0.1785,0.1851,0.1792,0.1792,0.1792,0.1841,0.1842,0.1844,0,0,0,0,0,0,0.1801,0.1797,0.1766,0.1784,0.1781,0.1783,0.1769,0.177,0.1783,0.1777,0.1778,0.1788,0.1783,0.1785,0.1804,0.1849,0.1792,0.1793,0.184,0.1841,0.1843,0.1937,0,0,0,0,0,0,0.1802,0.1796,0.1806,0.1783,0.178,0.1775,0.1769,0.1769,0.1782,0.1784,0.179,0.179,0.1784,0.1804,0.1805,0.1849,0.1793,0.1838,0.184,0.1842,0.1933,0.1942,0.195,0,0,0,0,0,0.1803,0.1811,0.1806,0.1803,0.1786,0.1776,0.1776,0.1779,0.1783,0.1792,0.1799,0.1791,0.1818,0.1805,0.1805,0.1851,0.1837,0.184,0.1842,0.1929,0.194,0.195,0,0,0,0,0,0,0.1833,0.1811,0.1806,0.1806,0.1798,0.1778,0.1789,0.1789,0.18,0.1805,0.1801,0.1803,0.184,0.1825,0.181,0.1869,0.1828,0.1831,0.1894,0.1904,0.1913,0.2002,0.1793,0,0,0,0,0,0.1843,0.1839,0.1821,0.1818,0.1818,0.1806,0.181,0.1806,0.1805,0.1811,0.1826,0.1835,0.1847,0.1859,0.1865,0.1893,0.1904,0.1922,0.1931,0.1938,0.201,0.206,0.2082,0.1852,0.1852,0.1852,0,0,0.1849,0.1839,0.1835,0.1825,0.1817,0.1817,0.1809,0.181,0.1831,0.181,0.1859,0.1866,0.186,0.1898,0.1914,0.1895,0.1994,0.1942,0.1948,0.2018,0.2066,0.2088,0.2109,0.1854,0.1854,0.1853,0,0,0.1857,0.1851,0.1855,0.1851,0.1846,0.1837,0.1841,0.1842,0.1869,0.1902,0.1901,0.1963,0.1954,0.1999,0.2005,0.2069,0.2036,0.2034,0.2159,0.2204,0.2225,0.2244,0.2225,0.2242,0.2041,0.2041,0.2041,0,0.1872,0.1862,0.1856,0.186,0.1864,0.1847,0.1855,0.1874,0.1892,0.1947,0.193,0.2024,0.2027,0.2112,0.2142,0.2101,0.2082,0.2117,0.222,0.2239,0.2257,0.2234,0.2251,0.2046,0.2046,0.2045,0.2045,0,0.1873,0.1878,0.1878,0.1874,0.1884,0.188,0.1898,0.1943,0.1974,0.2015,0.2127,0.2156,0.2233,0.2225,0.221,0.2333,0.226,0.2222,0.2202,0.2287,0.2254,0.2271,0.2053,0.2051,0.205,0.2049,0,0,0.1864,0.1878,0.1878,0.1903,0.1891,0.1909,0.1953,0.2018,0.2106,0.2158,0.2283,0.2359,0.242,0.2438,0.2434,0.2495,0.2586,0.2424,0.2424,0.2422,0.2632,0.2386,0.2379,0.2545,0.255,0.2553,0.2538,0,0.1864,0.1892,0.189,0.1925,0.1944,0.1965,0.2022,0.2093,0.217,0.2291,0.2379,0.2482,0.2476,0.2533,0.2603,0.2581,0.2643,0.2592,0.2541,0.2541,0.2326,0.2396,0.2205,0.2159,0.2553,0.2556,0.2558,0,0.1861,0.1886,0.1927,0.1995,0.2009,0.2039,0.2167,0.222,0.2369,0.2443,0.2583,0.2634,0.2763,0.2732,0.2813,0.2763,0.2749,0.2729,0.2726,0.25,0.2328,0.215,0.2174,0.2584,0.2582,0.258,0.2579,0,0.1875,0.1915,0.1962,0.1975,0.2045,0.2108,0.2153,0.2291,0.2383,0.256,0.2639,0.2784,0.2843,0.2887,0.2858,0.2842,0.2894,0.2847,0.2623,0.2601,0.2441,0.2396,0.2958,0.2958,0.2958,0.2958,0.2958,0,0.1861,0.1899,0.1991,0.2016,0.213,0.2161,0.2306,0.239,0.2523,0.2606,0.2735,0.2783,0.289,0.2908,0.2895,0.2778,0.2921,0.2686,0.2609,0.2452,0.241,0.2794,0.2775,0.2958,0.2958,0.2958,0.2958,0,0.1854,0.1889,0.1985,0.2095,0.2141,0.2237,0.2366,0.2458,0.2574,0.2675,0.2725,0.2811,0.2776,0.2832,0.2854,0.2774,0.2721,0.2655,0.2425,0.2321,0.2391,0.2377,0.2418,0.2409,0.2403,0.2397,0.2392,0,0.1854,0.1905,0.2067,0.213,0.218,0.231,0.2376,0.2495,0.2549,0.2627,0.2633,0.2668,0.2586,0.2513,0.244,0.2367,0.252,0.2134,0.21,0.2429,0.235,0.2347,0.2343,0.1908,0.1899,0.1893,0.1887,0,0.1892,0.1966,0.2042,0.2149,0.2239,0.2318,0.239,0.2431,0.2494,0.2513,0.2415,0.235,0.2267,0.2047,0.1976,0.1919,0.2126,0.1979,0.244,0.2038,0.1937,0.1862,0.1878,0.1825,0.1832,0.1836,0.1839,0.1842,0.1946,0.2005,0.2085,0.2142,0.2233,0.2208,0.221,0.2204,0.2175,0.208,0.2107,0.1907,0.1894,0.1607,0.1513,0.1476,0.1641,0.1588,0.1616,0.165,0.1558,0.1447,0.1224,0.1226,0.1229,0.1231,0.1232,0,0.198,0.1976,0.2043,0.2059,0.2042,0.213,0.2118,0.2024,0.1845,0.178,0.1643,0.1384,0.1177,0.1196,0.1015,0.0959,0.1044,0.0925,0.1054,0.1112,0.1165,0.1057,0.0586,0.0584,0.0582,0.0581,0,0,0.1974,0.1978,0.1927,0.1806,0.1832,0.1758,0.1719,0.1564,0.1472,0.1239,0.111,0.1116,0.1122,0.0847,0.0794,0.0657,0.0896,0.0619,0.1137,0.1349,0.14,0.1536,0.1429,0,0,0,0,0]},{"header":{"parameterUnit":"m.s-1","parameterCategory":2,"la1":30.2991,"la2":30.254,"lo1":-89.0895,"lo2":-89.0444,"dy":0.0017,"dx":0.0017,"nx":28,"ny":28,"refTime":"2025-07-22T03:00:00:Z","depth":"2","parameterNumber":3,"parameterNumberName":"V-component_of_CURRENTS"},"data":[0,0,0,0,0,0,0,0,0,0,0,0,0,0,0,0,0,0,0,0,0,0,0,0,0,0,0,0,0,0,0,0,0,0,0,0,0,0,0,0,0,0,0,0,0,0,0,0,0,0,0,0,0,0,0,0,0,0,0.0035,0.0035,0,0.0037,0.0037,0.0037,0.0037,0.0037,0.0037,0.0037,0.003,0.003,0.003,0,0,0,0,0,0,0,0,0,0,0,0,0,0.0021,0.0021,0.0035,0.0035,0.0035,0.0037,0.0037,0.0037,0.0037,0.0037,0.0037,0.0037,0.003,0.003,0.003,0,0,0,0,0,0,0,0,0,0,0,0,0,0.0026,0.0021,0.0035,0.0035,0.0035,0.0037,0.0037,0.0037,0.0037,0.0037,0.0037,0.0037,0.003,0.003,0.003,0.0031,0,0,0.0029,0.0029,0,0,0,0,0,0,0,0,0.0025,0.0026,0.0035,0.0035,0.0035,0.0036,0.003,0.0035,0.0037,0.0037,0.0037,0.0037,0.0031,0.0031,0.0032,0.0031,0.0031,0.0029,0.0029,0.0029,0.0029,0,0,0,0,0,0,0,0.0025,0.0026,0.0036,0.0035,0.0035,0.0031,0.0032,0.0031,0.0035,0.0037,0.0037,0.0036,0.0031,0.0033,0.0032,0.0031,0.0029,0.0029,0.0029,0.0029,0.0044,0.0045,0,0,0,0,0,0,0.0024,0.0026,0.0036,0.0036,0.0029,0.0031,0.0032,0.0036,0.0035,0.0035,0.0036,0.0036,0.0033,0.0032,0.0032,0.0044,0.0029,0.0029,0.0029,0.0044,0.0044,0.0045,0,0,0,0,0,0,0.0024,0.0026,0.0036,0.003,0.0031,0.0032,0.0036,0.0036,0.0039,0.0035,0.0034,0.0039,0.0033,0.0032,0.0032,0.0043,0.0029,0.0029,0.0043,0.0044,0.0045,0.006,0,0,0,0,0,0,0.0024,0.0026,0.0027,0.003,0.0032,0.0041,0.0036,0.0036,0.0038,0.0038,0.0036,0.0036,0.0033,0.0033,0.0032,0.0043,0.0029,0.0042,0.0043,0.0044,0.0059,0.0062,0.0064,0,0,0,0,0,0.0023,0.0029,0.0027,0.0029,0.0034,0.0042,0.0042,0.0042,0.0039,0.0043,0.0039,0.0036,0.0039,0.0033,0.0032,0.0043,0.0042,0.0043,0.0044,0.0058,0.0061,0.0064,0,0,0,0,0,0,0.0023,0.0029,0.0028,0.0034,0.0039,0.0042,0.0045,0.0043,0.0044,0.0043,0.0038,0.0037,0.0043,0.004,0.0034,0.0051,0.0042,0.0043,0.0052,0.0055,0.0057,0.0111,0.0029,0,0,0,0,0,0.0023,0.0029,0.0034,0.0038,0.0042,0.0043,0.0045,0.0045,0.0046,0.0047,0.0045,0.0044,0.0048,0.0048,0.005,0.0055,0.0074,0.0064,0.0066,0.0068,0.0111,0.0157,0.0168,0.0049,0.0049,0.0048,0,0,0.0023,0.0027,0.003,0.0038,0.0042,0.0055,0.0044,0.005,0.0063,0.0046,0.0058,0.0051,0.0051,0.0059,0.0062,0.0057,0.0098,0.0069,0.0071,0.0115,0.016,0.0172,0.0183,0.0049,0.0049,0.0049,0,0,0.003,0.0032,0.0041,0.0048,0.0055,0.0061,0.0063,0.0068,0.0071,0.0076,0.0072,0.0087,0.0071,0.0094,0.0097,0.0117,0.0109,0.0095,0.015,0.0192,0.0203,0.0213,0.0198,0.0207,0.0096,0.0096,0.0096,0,0.0029,0.0044,0.0044,0.0057,0.007,0.0066,0.0085,0.0089,0.0093,0.0119,0.0083,0.0125,0.0104,0.0161,0.015,0.0128,0.0124,0.0135,0.0197,0.0208,0.0218,0.0201,0.021,0.0097,0.0096,0.0096,0.0096,0,0.0046,0.0058,0.0066,0.0086,0.0099,0.0113,0.0124,0.0141,0.0139,0.0158,0.0205,0.019,0.0231,0.0204,0.0172,0.0237,0.0197,0.0193,0.0194,0.0232,0.0209,0.0219,0.0098,0.0098,0.0097,0.0097,0,0,0.0048,0.0073,0.0077,0.0098,0.0118,0.0137,0.0168,0.0216,0.0276,0.0264,0.0348,0.0327,0.0342,0.035,0.0324,0.0343,0.0362,0.0287,0.0289,0.0277,0.0409,0.0349,0.0353,0.0358,0.0361,0.0364,0.0344,0,0.0065,0.0094,0.0108,0.015,0.0171,0.0196,0.0237,0.0283,0.0322,0.0399,0.0413,0.0468,0.039,0.041,0.0421,0.0391,0.0398,0.0366,0.0372,0.0373,0.0321,0.0368,0.038,0.0363,0.0354,0.0355,0.0357,0,0.0084,0.0102,0.0136,0.0202,0.0218,0.0245,0.0349,0.0385,0.0491,0.0526,0.0601,0.0622,0.0659,0.0585,0.0582,0.0556,0.0492,0.0456,0.0454,0.0418,0.0335,0.0335,0.0382,0.0373,0.0372,0.0371,0.0369,0,0.0091,0.0135,0.0165,0.018,0.0243,0.028,0.0323,0.0427,0.0506,0.0621,0.0704,0.0757,0.0787,0.0751,0.0656,0.0621,0.0643,0.0591,0.0484,0.0475,0.0505,0.0496,0.0614,0.0614,0.0614,0.0614,0.0614,0,0.0111,0.0141,0.0169,0.0185,0.0267,0.0292,0.0412,0.0474,0.0603,0.073,0.0768,0.0863,0.083,0.0836,0.0729,0.0637,0.0701,0.0523,0.0493,0.0501,0.0491,0.0529,0.0519,0.0613,0.0613,0.0613,0.0614,0,0.0126,0.0132,0.0183,0.024,0.0269,0.0326,0.0463,0.0576,0.0656,0.0827,0.0869,0.0955,0.0937,0.0892,0.083,0.0727,0.0648,0.0596,0.0574,0.0543,0.0423,0.0414,0.0485,0.0483,0.0482,0.048,0.0479,0,0.0135,0.0151,0.0225,0.0287,0.0316,0.0405,0.0505,0.0597,0.0727,0.0872,0.0972,0.1007,0.1023,0.0909,0.0791,0.0647,0.0621,0.0536,0.0488,0.046,0.0423,0.0416,0.0409,0.0504,0.0503,0.0503,0.0502,0,0.0172,0.0192,0.0253,0.0363,0.0457,0.0569,0.0694,0.0789,0.0911,0.1005,0.109,0.1088,0.1015,0.0883,0.0713,0.0609,0.0564,0.0515,0.0555,0.0525,0.0475,0.0438,0.0432,0.0497,0.0497,0.0498,0.0498,0.0498,0.0225,0.0284,0.0365,0.0474,0.0587,0.0704,0.0772,0.0895,0.101,0.1104,0.1117,0.1061,0.099,0.0731,0.062,0.0506,0.0503,0.0424,0.0428,0.0433,0.0429,0.0379,0.0379,0.0379,0.0378,0.0378,0.0378,0,0.0302,0.0369,0.048,0.0599,0.0703,0.0741,0.0898,0.093,0.0996,0.1068,0.1061,0.0907,0.0792,0.0689,0.0525,0.0415,0.0427,0.0358,0.0409,0.0415,0.042,0.0418,0.0363,0.0363,0.0362,0.0362,0,0,0.0354,0.0465,0.0508,0.0661,0.0734,0.0825,0.0877,0.0901,0.0942,0.0923,0.0882,0.0879,0.0785,0.065,0.0551,0.0454,0.0445,0.0423,0.0447,0.0527,0.0532,0.0472,0.0476,0,0,0,0,0]}],[{"header":{"parameterUnit":"m.s-1","parameterCategory":2,"la1":30.2991,"la2":30.254,"lo1":-89.0895,"lo2":-89.0444,"dy":0.0017,"dx":0.0017,"nx":28,"ny":28,"refTime":"2025-07-22T03:00:00:Z","depth":"4","parameterNumber":2,"parameterNumberName":"U-component_of_CURRENTS"},"data":[0,0,0,0,0,0,0,0,0,0,0,0,0,0,0,0,0,0,0,0,0,0,0,0,0,0,0,0,0,0,0,0,0,0,0,0,0,0,0,0,0,0,0,0,0,0,0,0,0,0,0,0,0,0,0,0,0,0,0.0824,0.0824,0,0.0816,0.0816,0.0815,0.0836,0.0837,0.0838,0.0839,0.0811,0.081,0.0808,0,0,0,0,0,0,0,0,0,0,0,0,0,0.0867,0.0865,0.0824,0.0824,0.0825,0.0816,0.0816,0.0815,0.0836,0.0837,0.0838,0.0839,0.0812,0.081,0.0808,0,0,0,0,0,0,0,0,0,0,0,0,0,0.085,0.0865,0.0824,0.0835,0.0837,0.0816,0.0816,0.0815,0.0836,0.0837,0.0839,0.084,0.0812,0.081,0.0808,0.0768,0,0,0.0801,0.08,0,0,0,0,0,0,0,0,0.0851,0.0848,0.0834,0.0835,0.0836,0.083,0.0821,0.0799,0.0836,0.0834,0.0839,0.084,0.0816,0.0814,0.0807,0.0767,0.0766,0.0801,0.0799,0.0798,0.0798,0,0,0,0,0,0,0,0.0852,0.0849,0.0819,0.0834,0.0835,0.0844,0.0843,0.0817,0.0816,0.0834,0.0836,0.0838,0.0817,0.0809,0.0806,0.0765,0.0801,0.0799,0.0797,0.0796,0.076,0.076,0,0,0,0,0,0,0.0855,0.085,0.0819,0.0819,0.0849,0.0842,0.0841,0.0829,0.0817,0.0817,0.0837,0.0839,0.0812,0.0809,0.0805,0.0819,0.0798,0.0796,0.0795,0.0759,0.076,0.076,0,0,0,0,0,0,0.0856,0.0852,0.082,0.0837,0.0834,0.084,0.0827,0.0828,0.0846,0.082,0.0819,0.0857,0.0813,0.0808,0.0811,0.0816,0.0795,0.0793,0.0759,0.0759,0.076,0.0806,0,0,0,0,0,0,0.0857,0.0852,0.0854,0.0836,0.0833,0.0814,0.0826,0.0827,0.0845,0.0848,0.0836,0.0833,0.0814,0.0815,0.0809,0.0812,0.0791,0.0758,0.0759,0.076,0.0804,0.0808,0.0812,0,0,0,0,0,0.0858,0.0849,0.0853,0.0851,0.0832,0.0814,0.0813,0.0821,0.0845,0.0844,0.0853,0.0835,0.0815,0.0813,0.0806,0.0809,0.0758,0.0759,0.076,0.0802,0.0807,0.0811,0,0,0,0,0,0,0.0869,0.085,0.0855,0.0841,0.0835,0.0819,0.0826,0.0834,0.084,0.0854,0.084,0.0837,0.0842,0.0818,0.0817,0.0801,0.0783,0.0782,0.0817,0.0822,0.0826,0.0825,0.0789,0,0,0,0,0,0.0872,0.086,0.0846,0.0838,0.084,0.084,0.0841,0.0844,0.0843,0.0849,0.0842,0.0837,0.0833,0.0826,0.0812,0.0798,0.082,0.0795,0.0799,0.0803,0.0798,0.0887,0.0899,0.0763,0.0763,0.0763,0,0,0.0879,0.0863,0.0861,0.084,0.0842,0.0822,0.0844,0.0847,0.0827,0.0842,0.0831,0.0852,0.0835,0.0829,0.0827,0.0813,0.0846,0.0804,0.0807,0.08,0.0889,0.0903,0.0915,0.0764,0.0764,0.0763,0,0,0.0864,0.0871,0.0852,0.0846,0.0843,0.0831,0.0838,0.0834,0.0836,0.0825,0.0845,0.0882,0.0844,0.0853,0.0847,0.0862,0.0871,0.0852,0.0862,0.0949,0.0962,0.0973,0.0997,0.1011,0.0847,0.0847,0.0847,0,0.0877,0.0839,0.0847,0.0825,0.0818,0.0836,0.0813,0.0805,0.0801,0.0819,0.0823,0.0867,0.0852,0.0881,0.088,0.0871,0.0907,0.0848,0.0958,0.097,0.0981,0.1003,0.1017,0.0849,0.0849,0.0849,0.0849,0,0.0838,0.0818,0.0812,0.078,0.0774,0.0763,0.0752,0.0763,0.0778,0.0786,0.0839,0.0859,0.0901,0.0894,0.0878,0.0949,0.0944,0.0964,0.0953,0.0998,0.1017,0.1031,0.0853,0.0852,0.0851,0.0851,0,0,0.0842,0.0791,0.0794,0.077,0.0753,0.074,0.0727,0.0727,0.0773,0.078,0.0845,0.0845,0.0921,0.0921,0.0948,0.0997,0.1089,0.1006,0.101,0.1039,0.1253,0.1103,0.1104,0.115,0.1153,0.1156,0.1228,0,0.0812,0.0744,0.0737,0.0692,0.0657,0.0684,0.0685,0.0701,0.074,0.0811,0.0863,0.0938,0.091,0.0985,0.1026,0.1086,0.1131,0.1064,0.1196,0.1198,0.1069,0.1118,0.1166,0.1239,0.1242,0.1244,0.1246,0,0.0774,0.0727,0.0664,0.0648,0.065,0.0643,0.0695,0.0705,0.0804,0.0863,0.0961,0.1024,0.1099,0.1097,0.1202,0.117,0.1208,0.1238,0.1244,0.1096,0.1074,0.1188,0.1271,0.1269,0.1267,0.1266,0.1264,0,0.0733,0.0688,0.0629,0.0618,0.0603,0.062,0.0649,0.0733,0.0785,0.0938,0.1027,0.1126,0.1209,0.1279,0.1292,0.1289,0.1398,0.1415,0.1309,0.1297,0.1392,0.1379,0.151,0.151,0.151,0.151,0.151,0,0.0674,0.064,0.0617,0.0582,0.0591,0.061,0.0678,0.0747,0.0879,0.0964,0.1079,0.1166,0.1269,0.1324,0.134,0.1332,0.1444,0.1308,0.1317,0.1402,0.1391,0.14,0.1387,0.1513,0.1512,0.1512,0.1511,0,0.0613,0.059,0.0537,0.0535,0.0556,0.0573,0.068,0.0747,0.089,0.1016,0.1078,0.1216,0.1288,0.1333,0.1435,0.1379,0.1406,0.138,0.1422,0.1433,0.1237,0.1225,0.1297,0.1293,0.1289,0.1286,0.1283,0,0.0561,0.0516,0.051,0.0521,0.0522,0.0571,0.0625,0.0745,0.0813,0.1019,0.1064,0.1194,0.1262,0.1273,0.1326,0.1346,0.1329,0.1328,0.1309,0.1219,0.1222,0.1215,0.1208,0.1277,0.1276,0.1275,0.1274,0,0.0472,0.0483,0.0461,0.0489,0.052,0.055,0.0626,0.0669,0.0819,0.0938,0.1046,0.1109,0.117,0.1206,0.1211,0.1226,0.1324,0.1289,0.1298,0.1281,0.1196,0.12,0.1198,0.1261,0.1263,0.1264,0.1265,0,0.0453,0.0438,0.0448,0.0476,0.0516,0.054,0.0567,0.0638,0.0716,0.0915,0.0929,0.1065,0.1155,0.1143,0.115,0.1139,0.114,0.1112,0.113,0.1145,0.1054,0.0922,0.0914,0,0,0,0,0,0.0438,0.0437,0.0449,0.0471,0.0508,0.0534,0.0587,0.0617,0.0728,0.0773,0.0858,0.0913,0.0969,0.1019,0.098,0.107,0.113,0.1018,0.1104,0.1189,0.1204,0.1107,0,0,0,0,0,0,0.0435,0.0444,0.0442,0.0476,0.05,0.0529,0.0556,0.0611,0.0628,0.0746,0.0768,0.0855,0.0901,0.0994,0.0972,0.0981,0.1011,0.1075,0.1072,0.118,0.1194,0.1206,0.1112,0,0,0,0,0]},{"header":{"parameterUnit":"m.s-1","parameterCategory":2,"la1":30.2991,"la2":30.254,"lo1":-89.0895,"lo2":-89.0444,"dy":0.0017,"dx":0.0017,"nx":28,"ny":28,"refTime":"2025-07-22T03:00:00:Z","depth":"4","parameterNumber":3,"parameterNumberName":"V-component_of_CURRENTS"},"data":[0,0,0,0,0,0,0,0,0,0,0,0,0,0,0,0,0,0,0,0,0,0,0,0,0,0,0,0,0,0,0,0,0,0,0,0,0,0,0,0,0,0,0,0,0,0,0,0,0,0,0,0,0,0,0,0,0,0,0.0059,0.0059,0,0.0072,0.0072,0.0073,0.0084,0.0084,0.0084,0.0084,0.0121,0.0122,0.0123,0,0,0,0,0,0,0,0,0,0,0,0,0,0.0032,0.0033,0.0059,0.0059,0.0059,0.0072,0.0072,0.0073,0.0084,0.0084,0.0084,0.0084,0.0121,0.0122,0.0123,0,0,0,0,0,0,0,0,0,0,0,0,0,0.0045,0.0033,0.0059,0.0066,0.0066,0.0072,0.0072,0.0073,0.0084,0.0084,0.0084,0.0084,0.012,0.0122,0.0123,0.0131,0,0,0.0128,0.0128,0,0,0,0,0,0,0,0,0.0044,0.0046,0.0064,0.0065,0.0066,0.0076,0.0076,0.0093,0.0084,0.0078,0.0084,0.0084,0.0108,0.011,0.0113,0.0133,0.0134,0.0128,0.0129,0.0129,0.013,0,0,0,0,0,0,0,0.0044,0.0046,0.0065,0.0065,0.0065,0.0064,0.0066,0.008,0.0094,0.0079,0.0079,0.0079,0.0108,0.0112,0.0114,0.0135,0.0128,0.0129,0.013,0.013,0.0177,0.0177,0,0,0,0,0,0,0.0041,0.0045,0.0065,0.0065,0.0054,0.0064,0.0067,0.0073,0.0093,0.0095,0.0079,0.008,0.0109,0.0113,0.0116,0.0153,0.0129,0.0131,0.0131,0.0176,0.0177,0.0177,0,0,0,0,0,0,0.004,0.0043,0.0064,0.0054,0.0057,0.0065,0.0072,0.0073,0.0079,0.0093,0.0096,0.0083,0.011,0.0114,0.0133,0.0153,0.0131,0.0133,0.0176,0.0176,0.0177,0.021,0,0,0,0,0,0,0.0039,0.0042,0.0046,0.0054,0.0057,0.0075,0.0072,0.0074,0.0078,0.0079,0.0097,0.01,0.011,0.0131,0.0134,0.0155,0.0134,0.0175,0.0176,0.0177,0.0209,0.0212,0.0215,0,0,0,0,0,0.0039,0.0045,0.0046,0.0048,0.0062,0.0075,0.0077,0.0083,0.0078,0.0086,0.0096,0.01,0.0138,0.0132,0.0136,0.0158,0.0175,0.0176,0.0177,0.0207,0.0211,0.0215,0,0,0,0,0,0,0.0035,0.0047,0.0048,0.0058,0.0068,0.0077,0.0082,0.0083,0.0096,0.0097,0.0106,0.0111,0.0135,0.0137,0.0131,0.0171,0.0156,0.0158,0.0178,0.0182,0.0185,0.0178,0.0135,0,0,0,0,0,0.0036,0.0045,0.0055,0.0063,0.0067,0.0073,0.0077,0.0084,0.0095,0.01,0.0113,0.0126,0.0141,0.0153,0.0166,0.0189,0.0164,0.0204,0.0207,0.021,0.0206,0.017,0.0169,0.018,0.018,0.018,0,0,0.0035,0.0044,0.0048,0.0063,0.0069,0.0093,0.0077,0.0088,0.0114,0.0103,0.0139,0.0137,0.0148,0.0175,0.0187,0.0182,0.0196,0.0211,0.0213,0.0207,0.0171,0.017,0.0169,0.018,0.018,0.018,0,0,0.0047,0.0048,0.0063,0.0078,0.0092,0.0102,0.0106,0.012,0.013,0.016,0.0155,0.0158,0.0194,0.0197,0.0206,0.0229,0.021,0.0239,0.0255,0.0222,0.022,0.0219,0.0195,0.0191,0.0245,0.0245,0.0245,0,0.0045,0.0075,0.0069,0.0095,0.0115,0.011,0.0142,0.0153,0.0174,0.0176,0.0179,0.0194,0.0204,0.0219,0.0233,0.0237,0.0214,0.0244,0.0225,0.0223,0.022,0.0196,0.0191,0.0246,0.0246,0.0246,0.0246,0,0.0075,0.0105,0.0115,0.0153,0.0168,0.0196,0.0212,0.0227,0.0235,0.0236,0.0245,0.0245,0.0249,0.0256,0.0259,0.0252,0.0241,0.0229,0.0215,0.0221,0.0195,0.019,0.0249,0.0248,0.0248,0.0247,0,0,0.0069,0.0127,0.0134,0.0167,0.0207,0.0223,0.0262,0.0286,0.0293,0.0301,0.0305,0.032,0.029,0.0295,0.0285,0.026,0.0235,0.0245,0.0242,0.0219,0.0164,0.0186,0.0181,0.0217,0.0216,0.0215,0.0155,0,0.0102,0.0169,0.0187,0.0253,0.0294,0.0305,0.0335,0.0347,0.0354,0.0352,0.0326,0.0332,0.0316,0.0316,0.0285,0.0245,0.0219,0.0252,0.0162,0.0159,0.0176,0.0175,0.0212,0.0151,0.0149,0.0148,0.0148,0,0.0132,0.0181,0.0257,0.0313,0.0325,0.0358,0.0392,0.0417,0.0405,0.0405,0.0385,0.036,0.0332,0.0315,0.0237,0.0258,0.0216,0.0179,0.0176,0.0178,0.017,0.014,0.0137,0.0138,0.0139,0.0139,0.014,0,0.0148,0.0223,0.029,0.0317,0.0378,0.0402,0.0423,0.0429,0.0441,0.0435,0.0434,0.0383,0.0366,0.0297,0.023,0.0233,0.013,0.0125,0.0101,0.0102,0.0084,0.0087,0.0063,0.0063,0.0063,0.0063,0.0063,0,0.0189,0.0238,0.0304,0.0347,0.0395,0.0423,0.0457,0.0467,0.0473,0.0477,0.0455,0.0444,0.0359,0.0294,0.0227,0.0147,0.0127,0.01,0.0086,0.0102,0.0107,0.0081,0.0084,0.0061,0.0061,0.0062,0.0062,0,0.0203,0.0254,0.0323,0.0394,0.0413,0.0442,0.0484,0.0489,0.0511,0.0519,0.0523,0.048,0.0411,0.032,0.0207,0.0155,0.0073,0.0049,0.0078,0.0067,0.0067,0.0073,0.0018,0.0019,0.0019,0.0019,0.0019,0,0.022,0.0265,0.0347,0.0373,0.0409,0.0457,0.0471,0.0505,0.0515,0.0539,0.0529,0.0488,0.045,0.03,0.0211,0.0087,0.0072,0.003,0.0046,0.007,0.0061,0.0066,0.0071,0.0019,0.0019,0.0019,0.002,0,0.0241,0.0267,0.0315,0.0379,0.041,0.0446,0.0481,0.0502,0.0535,0.0551,0.054,0.0493,0.0413,0.0305,0.0214,0.0123,0.0057,0.0032,0.0031,0.0045,0.0071,0.0063,0.0068,0.002,0.002,0.002,0.002,0,0.0235,0.0254,0.0312,0.0364,0.0402,0.0435,0.046,0.048,0.0504,0.0541,0.053,0.0476,0.0438,0.0324,0.0233,0.0155,0.0139,0.011,0.0105,0.0103,0.0151,0.0197,0.017,0,0,0,0,0,0.0236,0.0253,0.029,0.0347,0.0385,0.0417,0.0458,0.0478,0.0524,0.0514,0.0534,0.0471,0.0376,0.0326,0.0251,0.0231,0.0118,0.0141,0.0079,0.0024,0.0023,0.0068,0,0,0,0,0,0,0.0225,0.0261,0.0282,0.0329,0.0365,0.0404,0.0438,0.0465,0.0466,0.0503,0.0441,0.0448,0.0336,0.0413,0.0246,0.0226,0.0176,0.01,0.0098,0.0024,0.0024,0.0023,0.0069,0,0,0,0,0]}]]